TimeCST,TemperatureF,Dew PointF,Humidity,Sea Level PressureIn,VisibilityMPH,Wind Direction,Wind SpeedMPH,Gust SpeedMPH,PrecipitationIn,Events,Conditions,WindDirDegrees,DateUTC
12:15 AM,32.0,24.8,75,30.11,10.0,NNW,17.3,26.5,N/A,,Overcast,330,2013-02-03 06:15:00
12:35 AM,32.0,24.8,75,30.12,10.0,NW,19.6,28.8,N/A,,Partly Cloudy,320,2013-02-03 06:35:00
12:55 AM,30.2,23.0,75,30.12,10.0,NW,20.7,-,N/A,,Clear,320,2013-02-03 06:55:00
1:15 AM,30.2,23.0,75,30.13,10.0,NW,17.3,24.2,N/A,,Clear,320,2013-02-03 07:15:00
1:35 AM,30.2,23.0,75,30.14,10.0,NW,16.1,24.2,N/A,,Clear,320,2013-02-03 07:35:00
1:55 AM,30.2,23.0,75,30.15,10.0,NW,15.0,-,N/A,,Clear,320,2013-02-03 07:55:00
2:15 AM,28.4,23.0,80,30.16,10.0,NW,15.0,21.9,N/A,,Clear,320,2013-02-03 08:15:00
2:35 AM,28.4,23.0,80,30.15,10.0,NW,18.4,25.3,N/A,,Clear,310,2013-02-03 08:35:00
2:55 AM,28.4,19.4,69,30.16,10.0,NW,18.4,24.2,N/A,,Clear,310,2013-02-03 08:55:00
3:15 AM,26.6,19.4,74,30.16,10.0,NW,13.8,19.6,N/A,,Clear,320,2013-02-03 09:15:00
3:55 AM,26.6,19.4,74,30.16,10.0,NW,18.4,24.2,N/A,,Clear,320,2013-02-03 09:55:00
4:15 AM,24.8,19.4,80,30.16,10.0,NNW,13.8,20.7,N/A,,Clear,330,2013-02-03 10:15:00
4:35 AM,24.8,19.4,80,30.17,10.0,NW,9.2,-,N/A,,Clear,310,2013-02-03 10:35:00
4:55 AM,24.8,17.6,74,30.18,10.0,NW,11.5,-,N/A,,Clear,320,2013-02-03 10:55:00
5:15 AM,24.8,15.8,69,30.19,10.0,NW,10.4,18.4,N/A,,Clear,320,2013-02-03 11:15:00
5:35 AM,24.8,14.0,64,30.19,10.0,NNW,10.4,19.6,N/A,,Clear,330,2013-02-03 11:35:00
5:55 AM,23.0,14.0,68,30.20,10.0,NW,9.2,-,N/A,,Clear,320,2013-02-03 11:55:00
6:15 AM,23.0,12.2,63,30.18,10.0,NNW,9.2,16.1,N/A,,Clear,340,2013-02-03 12:15:00
6:35 AM,23.0,12.2,63,30.18,10.0,NNW,8.1,-,N/A,,Clear,340,2013-02-03 12:35:00
6:55 AM,21.2,12.2,68,30.17,10.0,NNW,5.8,-,N/A,,Clear,340,2013-02-03 12:55:00
7:15 AM,21.2,12.2,68,30.18,10.0,NNW,6.9,-,N/A,,Clear,330,2013-02-03 13:15:00
7:35 AM,21.2,12.2,68,30.19,10.0,WNW,9.2,-,N/A,,Clear,290,2013-02-03 13:35:00
7:55 AM,21.2,12.2,68,30.20,10.0,West,4.6,-,N/A,,Clear,260,2013-02-03 13:55:00
8:15 AM,21.2,14.0,74,30.19,10.0,WSW,5.8,-,N/A,,Clear,240,2013-02-03 14:15:00
8:35 AM,23.0,14.0,68,30.19,10.0,West,6.9,-,N/A,,Clear,270,2013-02-03 14:35:00
8:55 AM,24.8,15.8,69,30.19,10.0,WSW,8.1,-,N/A,,Partly Cloudy,250,2013-02-03 14:55:00
9:15 AM,24.8,15.8,69,30.18,10.0,WSW,8.1,-,N/A,,Mostly Cloudy,240,2013-02-03 15:15:00
9:35 AM,24.8,15.8,69,30.18,10.0,SW,6.9,-,N/A,,Overcast,230,2013-02-03 15:35:00
9:55 AM,26.6,15.8,64,30.16,10.0,SW,6.9,-,N/A,,Scattered Clouds,230,2013-02-03 15:55:00
10:15 AM,28.4,14.0,55,30.15,10.0,SW,8.1,-,N/A,,Clear,230,2013-02-03 16:15:00
10:35 AM,28.4,15.8,59,30.14,10.0,SW,8.1,-,N/A,,Clear,230,2013-02-03 16:35:00
10:55 AM,28.4,17.6,64,30.14,10.0,South,9.2,-,N/A,,Clear,180,2013-02-03 16:55:00
11:15 AM,30.2,19.4,64,30.13,10.0,SSW,8.1,-,N/A,,Clear,200,2013-02-03 17:15:00
11:35 AM,30.2,17.6,60,30.12,10.0,South,10.4,-,N/A,,Clear,180,2013-02-03 17:35:00
11:55 AM,32.0,19.4,60,30.10,10.0,South,9.2,-,N/A,,Partly Cloudy,190,2013-02-03 17:55:00
12:15 PM,32.0,19.4,60,30.09,10.0,SSW,13.8,-,N/A,,Partly Cloudy,210,2013-02-03 18:15:00
12:35 PM,33.8,19.4,56,30.07,10.0,SSW,11.5,-,N/A,,Clear,200,2013-02-03 18:35:00
12:55 PM,33.8,19.4,56,30.06,10.0,SSW,13.8,-,N/A,,Clear,210,2013-02-03 18:55:00
1:15 PM,35.6,21.2,56,30.04,10.0,SSW,15.0,-,N/A,,Clear,200,2013-02-03 19:15:00
1:35 PM,35.6,23.0,60,30.04,10.0,SSW,13.8,-,N/A,,Clear,200,2013-02-03 19:35:00
1:55 PM,35.6,23.0,60,30.02,10.0,SSW,15.0,20.7,N/A,,Clear,200,2013-02-03 19:55:00
2:15 PM,37.4,24.8,60,30.00,10.0,SSW,15.0,24.2,N/A,,Clear,200,2013-02-03 20:15:00
2:35 PM,37.4,24.8,60,29.99,10.0,South,17.3,-,N/A,,Clear,190,2013-02-03 20:35:00
2:55 PM,37.4,24.8,60,29.98,10.0,SSW,15.0,24.2,N/A,,Clear,200,2013-02-03 20:55:00
3:15 PM,39.2,24.8,56,29.96,10.0,South,13.8,-,N/A,,Clear,190,2013-02-03 21:15:00
3:35 PM,39.2,24.8,56,29.95,10.0,SSW,13.8,-,N/A,,Clear,200,2013-02-03 21:35:00
3:55 PM,39.2,26.6,61,29.94,10.0,SSW,9.2,17.3,N/A,,Clear,200,2013-02-03 21:55:00
4:15 PM,39.2,26.6,61,29.92,10.0,SSW,13.8,19.6,N/A,,Clear,200,2013-02-03 22:15:00
4:35 PM,39.2,26.6,61,29.92,10.0,SSW,11.5,17.3,N/A,,Clear,200,2013-02-03 22:35:00
4:55 PM,39.2,26.6,61,29.90,10.0,SSW,11.5,-,N/A,,Clear,200,2013-02-03 22:55:00
5:15 PM,37.4,26.6,65,29.89,10.0,SSW,11.5,-,N/A,,Clear,200,2013-02-03 23:15:00
5:35 PM,37.4,26.6,65,29.89,10.0,SSW,11.5,-,N/A,,Scattered Clouds,200,2013-02-03 23:35:00
5:55 PM,37.4,26.6,65,29.88,10.0,SSW,12.7,-,N/A,,Mostly Cloudy,200,2013-02-03 23:55:00
6:15 PM,37.4,26.6,65,29.88,10.0,SSW,10.4,-,N/A,,Mostly Cloudy,200,2013-02-04 00:15:00
6:35 PM,37.4,26.6,65,29.88,10.0,South,10.4,-,N/A,,Scattered Clouds,190,2013-02-04 00:35:00
6:55 PM,37.4,26.6,65,29.88,10.0,SSW,10.4,-,N/A,,Partly Cloudy,200,2013-02-04 00:55:00
7:15 PM,37.4,26.6,65,29.88,10.0,SSW,10.4,-,N/A,,Clear,200,2013-02-04 01:15:00
7:55 PM,37.4,28.4,70,29.86,10.0,SSW,9.2,-,N/A,,Clear,210,2013-02-04 01:55:00
8:15 PM,37.4,26.6,65,29.86,10.0,SSW,9.2,-,N/A,,Clear,200,2013-02-04 02:15:00
8:35 PM,37.4,26.6,65,29.85,10.0,SSW,9.2,-,N/A,,Clear,200,2013-02-04 02:35:00
8:55 PM,37.4,26.6,65,29.84,10.0,South,11.5,-,N/A,,Clear,190,2013-02-04 02:55:00
9:15 PM,37.4,26.6,65,29.82,10.0,SSW,12.7,-,N/A,,Clear,200,2013-02-04 03:15:00
9:35 PM,39.2,26.6,61,29.82,10.0,South,12.7,-,N/A,,Clear,190,2013-02-04 03:35:00
9:55 PM,37.4,28.4,70,29.82,10.0,South,8.1,-,N/A,,Clear,190,2013-02-04 03:55:00
10:15 PM,37.4,26.6,65,29.80,10.0,South,8.1,-,N/A,,Clear,190,2013-02-04 04:15:00
10:35 PM,39.2,26.6,61,29.80,10.0,SSW,13.8,-,N/A,,Clear,200,2013-02-04 04:35:00
10:55 PM,39.2,26.6,61,29.78,10.0,SSW,12.7,-,N/A,,Clear,200,2013-02-04 04:55:00
11:15 PM,37.4,26.6,65,29.78,10.0,SSW,10.4,-,N/A,,Partly Cloudy,210,2013-02-04 05:15:00
11:35 PM,37.4,26.6,65,29.78,10.0,SSW,8.1,-,N/A,,Scattered Clouds,200,2013-02-04 05:35:00
11:55 PM,35.6,26.6,70,29.77,10.0,SSW,8.1,-,N/A,,Partly Cloudy,200,2013-02-04 05:55:00